C/2015 V1 ( PanSTARRS )

Japanese version
Home page
Updated on October 22, 2018

---------------------------------------------------------------------

* Profile

Discovery Date November 2, 2015
Magnitude 20.2 mag
Discoverer Pan-STARRS 1 telescope (Haleakala)

* Pictures

* Orbital Elements

Epoch 2018 Jan. 2.0 TT = JDT 2458120.5
T 2017 Dec. 17.73632 TT                                 MPCW
q   4.2667894            (2000.0)            P               Q
z  -0.0001230      Peri.  179.63915     +0.95387963     +0.22988599
 +/-0.0000003      Node   197.19416     +0.27375653     -0.40230219
e   1.0005249      Incl.  139.22913     +0.12317066     -0.88617458
From 1956 observations 2015 Nov. 2-2018 Sept. 18, mean residual 0".5.

* Finding Charts

* Magnitudes Graph

        m1 = 5.5 + 5 log d + 11.0 log r(t + 180)

---------------------------------------------------------------------

The orbital elements are published on M.P.E.C. 2018-S50.
The charts are made with StellaNavigator Ver.8 (AstroArts).
The magnitudes graphs are made with Comet for Windows.

---------------------------------------------------------------------

Copyright(C) Seiichi Yoshida (comet@aerith.net). All rights reserved.